FENGYUN 1C DEB

Satellite information

Favourite Embed

Satellite Type and Status

DEBRISIN ORBIT

Key statistics

Satellite FENGYUN 1C DEB at a glance.

Uptime

9715

Days in orbit

Revolutions

≈ 14.0

Per day

Orbit

SSO

Sun Synchronous Orbit

Inclination

98.4

Latest

Satellite identification and parameters

Extended collection of information and parameters for FENGYUN 1C DEB.

Object identification

Identified? True

Debris? True

Object name: FENGYUN 1C DEB

International designator: 1999-025ADL

Object number (NORAD): 30397

Object ID (CCSDS): 30397

Country: PEOPLES REPUBLIC OF CHINA (PRC)

Current information (Y/N): Y

RCS size: SMALL

Orbital parameters

Period: 102.961 minutes

Inclination: 98.4047 deg

SMA: 7276.813 km

Apoapsis: 1007.593 km

Periapsis: 789.764 km

RAAN: 135.548 deg

Eccentricy: 0.01496735

Argument of periapsis: 90.7162 deg

Mean anomaly: 291.0476 deg

Mean motion: 13.98591619 rev/day

Mean motion (dot): 0.00002427 rev/day2

B* drag term: 0.0015611098 1/REarth

Two-line elements (TLE)

Creation date: Dec. 14, 2025, 3:07 a.m.

Reference frame: TEME

Reference center: EARTH

Epoch: Dec. 13, 2025, 9:34 a.m. UTC

TLE line 0: 0 FENGYUN 1C DEB

TLE line 1: 1 30397U 99025ADL 25347.39910052 .00002427 00000-0 15611-2 0 9998

TLE line 2: 2 30397 98.4047 135.5480 0149673 90.7162 291.0476 13.98591619957740

Live tracking on map

Real-time ground track for satellite FENGYUN 1C DEB.

In-orbit conjunctions

A list of the most updated potential collisions computed for object FENGYUN 1C DEB.

Target Orbit TCA Probability of collision Miss distance Type
COSMOS 2389 LEO 2025-01-05 12:50:11 0.0007276849 377.0 (m) PAYLOAD
THOR ABLESTAR DEB LEO 2024-11-12 22:29:29 0.0001542141 213.0 (m) DEBRIS

Associated space launch

Chinese polar orbiting meteorological satellite

FENGYUN 1C DEB was lifted into orbit during the mission ‘Long March 4B | Feng Yun 1C’, on board a Long March 4B space rocket.

The launch took place on May 10, 1999, 1:33 a.m. from Launch Complex 7.

For more information about the launch, click the button.

Launch to space Long March 4B | Feng Yun 1C
Long March 4B | Feng Yun 1C

Agency: N/A

Status: Launch Successful

Launch date: May 10, 1999, 1:33 a.m. UTC

Rocket: Long March 4B

Launch pad: Launch Complex 7

Location: Taiyuan Satellite Launch Center, People's Republic of China

...

Latest news about this satellite

There are no fresh news available about this satellite. Check back as we update our databases every day.


Newsletter sign-up

Weekly statistics, charts and insights to help you stay on top of the space industry.